TimeICT,TemperatureF,Dew PointF,Humidity,Sea Level PressureIn,VisibilityMPH,Wind Direction,Wind SpeedMPH,Gust SpeedMPH,PrecipitationIn,Events,Conditions,WindDirDegrees,DateUTC
12:00 AM,77.0,64.4,65,29.89,6.2,NNW,4.6,-,N/A,,Scattered Clouds,330,2012-12-25 17:00:00
12:30 AM,77.0,64.4,65,29.89,6.2,NNW,4.6,-,N/A,,Scattered Clouds,340,2012-12-25 17:30:00
1:00 AM,76,66,64,29.86,7,Calm,Calm,,,,,,2012-12-25 18:00:00
1:00 AM,75.2,64.4,69,29.86,6.2,NNW,3.5,-,N/A,,Scattered Clouds,330,2012-12-25 18:00:00
1:30 AM,75.2,62.6,65,29.86,5.6,NW,4.6,-,N/A,,Mostly Cloudy,310,2012-12-25 18:30:00
2:00 AM,75.2,64.4,69,29.86,5.6,NNW,4.6,-,N/A,,Mostly Cloudy,330,2012-12-25 19:00:00
2:30 AM,75.2,64.4,69,29.86,5.0,NNW,4.6,-,N/A,,Mostly Cloudy,330,2012-12-25 19:30:00
3:00 AM,75.2,64.4,69,29.83,5.0,NE,3.5,-,N/A,,Mostly Cloudy,40,2012-12-25 20:00:00
3:30 AM,75.2,64.4,69,29.83,5.0,NNE,3.5,-,N/A,,Mostly Cloudy,20,2012-12-25 20:30:00
4:00 AM,75.2,64.4,69,29.83,5.0,North,3.5,-,N/A,,Mostly Cloudy,10,2012-12-25 21:00:00
4:30 AM,73.4,64.4,73,29.83,4.3,North,3.5,-,N/A,,Mostly Cloudy,350,2012-12-25 21:30:00
5:00 AM,73.4,64.4,73,29.83,4.3,NNE,5.8,-,N/A,,Mostly Cloudy,20,2012-12-25 22:00:00
5:30 AM,73.4,64.4,73,29.83,4.3,North,4.6,-,N/A,,Mostly Cloudy,10,2012-12-25 22:30:00
6:00 AM,73.4,64.4,73,29.83,3.7,North,4.6,-,N/A,,Mostly Cloudy,10,2012-12-25 23:00:00
6:30 AM,71.6,64.4,78,29.83,3.7,North,3.5,-,N/A,,Mostly Cloudy,10,2012-12-25 23:30:00
7:00 AM,74,63,60,29.83,7,Calm,Calm,,,,Scattered Clouds,,2012-12-26 00:00:00
7:00 AM,73.4,66.2,78,29.86,3.1,NNW,4.6,-,N/A,,Mostly Cloudy,340,2012-12-26 00:00:00
7:30 AM,73.4,66.2,78,29.86,3.1,NNE,4.6,-,N/A,,Mostly Cloudy,20,2012-12-26 00:30:00
8:00 AM,77.0,66.2,69,29.89,4.3,NNE,5.8,-,N/A,,Mostly Cloudy,30,2012-12-26 01:00:00
8:30 AM,77.0,66.2,69,29.89,4.3,NNE,5.8,-,N/A,,Mostly Cloudy,20,2012-12-26 01:30:00
9:00 AM,78.8,62.6,57,29.92,5.6,ENE,5.8,-,N/A,,Mostly Cloudy,60,2012-12-26 02:00:00
9:30 AM,80.6,62.6,54,29.92,6.2,NE,6.9,-,N/A,,Mostly Cloudy,50,2012-12-26 02:30:00
10:00 AM,82.4,62.6,51,29.92,6.2,ENE,9.2,-,N/A,,Scattered Clouds,70,2012-12-26 03:00:00
10:30 AM,82.4,62.6,51,29.89,-9999.0,East,10.4,-,N/A,,Clear,80,2012-12-26 03:30:00
11:00 AM,84.2,62.6,48,29.89,-9999.0,ENE,10.4,-,N/A,,Clear,70,2012-12-26 04:00:00
11:30 AM,84.2,62.6,48,29.89,-9999.0,ENE,10.4,-,N/A,,Clear,60,2012-12-26 04:30:00
12:00 PM,86.0,62.6,45,29.86,-9999.0,NE,8.1,-,N/A,,Clear,50,2012-12-26 05:00:00
12:30 PM,86.0,60.8,43,29.86,-9999.0,ENE,10.4,-,N/A,,Clear,70,2012-12-26 05:30:00
1:00 PM,90,64,33,29.80,5,NNE,5.8,,,,Haze,30,2012-12-26 06:00:00
1:00 PM,86.0,62.6,45,29.83,-9999.0,NE,10.4,-,N/A,,Clear,50,2012-12-26 06:00:00
1:30 PM,87.8,64.4,46,29.80,-9999.0,ENE,11.5,-,N/A,,Clear,60,2012-12-26 06:30:00
2:00 PM,87.8,64.4,46,29.80,-9999.0,NE,9.2,-,N/A,,Clear,50,2012-12-26 07:00:00
2:30 PM,87.8,64.4,46,29.80,-9999.0,ENE,8.1,-,N/A,,Clear,60,2012-12-26 07:30:00
3:00 PM,87.8,64.4,46,29.77,-9999.0,NE,8.1,-,N/A,,Clear,50,2012-12-26 08:00:00
3:30 PM,87.8,64.4,46,29.77,-9999.0,ENE,8.1,-,N/A,,Clear,60,2012-12-26 08:30:00
4:00 PM,87.8,64.4,46,29.77,-9999.0,ENE,5.8,-,N/A,,Clear,60,2012-12-26 09:00:00
4:30 PM,87.8,64.4,46,29.77,-9999.0,ENE,5.8,-,N/A,,Clear,60,2012-12-26 09:30:00
5:00 PM,86.0,64.4,48,29.80,-9999.0,NNE,5.8,-,N/A,,Clear,30,2012-12-26 10:00:00
5:30 PM,86.0,64.4,48,29.80,-9999.0,NNE,6.9,-,N/A,,Clear,30,2012-12-26 10:30:00
6:00 PM,84.2,64.4,51,29.80,6.2,NW,8.1,-,N/A,,Scattered Clouds,310,2012-12-26 11:00:00
6:30 PM,84.2,64.4,51,29.83,6.2,NNW,6.9,-,N/A,,Scattered Clouds,330,2012-12-26 11:30:00
7:00 PM,84,71,56,29.81,5,Calm,Calm,,,,Haze,,2012-12-26 12:00:00
7:00 PM,82.4,64.4,54,29.80,6.2,NNE,3.5,-,N/A,,Scattered Clouds,20,2012-12-26 12:00:00
7:30 PM,82.4,64.4,54,29.83,6.2,Variable,2.3,-,N/A,,Scattered Clouds,0,2012-12-26 12:30:00
8:00 PM,80.6,64.4,58,29.83,6.2,Calm,Calm,-,N/A,,Scattered Clouds,0,2012-12-26 13:00:00
8:30 PM,82.4,66.2,58,29.86,6.2,NNW,3.5,-,N/A,,Mostly Cloudy,340,2012-12-26 13:30:00
9:00 PM,82.4,64.4,54,29.86,6.2,North,3.5,-,N/A,,Mostly Cloudy,350,2012-12-26 14:00:00
9:30 PM,82.4,64.4,54,29.86,6.2,North,4.6,-,N/A,,Mostly Cloudy,10,2012-12-26 14:30:00
10:00 PM,78.8,66.2,65,29.86,5.6,North,4.6,-,N/A,,Mostly Cloudy,350,2012-12-26 15:00:00
10:30 PM,78.8,66.2,65,29.86,5.6,North,4.6,-,N/A,,Mostly Cloudy,350,2012-12-26 15:30:00
11:00 PM,78.8,66.2,65,29.86,5.0,NNW,4.6,-,N/A,,Mostly Cloudy,340,2012-12-26 16:00:00
11:30 PM,78.8,66.2,65,29.86,5.0,NNW,3.5,-,N/A,,Mostly Cloudy,340,2012-12-26 16:30:00